Regional Weather Roundup
Issued by NWS

Home | Current Version | Previous Version | Text Only | Print | Product List | Glossary Off
Versions: 1 2 3 4 5 6 7 8 9 10 11 12 13 14 15 16 17 18 19 20 21 22 23 24 25 26 27

000
ASUS45 KCYS 221010
RWRWY

WYOMING REGIONAL WEATHER ROUNDUP
NATIONAL WEATHER SERVICE CHEYENNE WY
300 AM MST MON JAN 22 2018

NOTE:  "FAIR" INDICATES FEW OR NO CLOUDS BELOW 12,000 FEET
WITH NO SIGNIFICANT WEATHER AND/OR OBSTRUCTIONS TO VISIBILITY.

WYZ001-221100-
YELLOWSTONE NATIONAL PARK

CITY           SKY/WX    TMP DP  RH WIND       PRES   REMARKS
LK YELLOWSTONE   N/A      4   1  88 CALM      30.16R
W YELLOWSTONE  NOT AVBL

$$
WYZ002>013-054>058-071-098>099-221100-
NORTHERN WYOMING

CITY           SKY/WX    TMP DP  RH WIND       PRES   REMARKS
JACKSON        FAIR      -3  -6  87 N9        30.23R WCI -19
CODY           FAIR      23   6  48 W21G28    30.01R WCI   8
GREYBULL       FAIR       7   4  87 SE3       30.08S
WORLAND        FAIR       0  -2  91 CALM      30.07R
SHERIDAN       FAIR      10   4  76 S3        29.98S
BUFFALO        FAIR      25   1  35 W7        29.96S WCI  17
GILLETTE       FAIR      20  11  68 VRB5      29.97F WCI  13
HULETT         FAIR      14  12  92 MISG      29.98S
NEWCASTLE      FAIR      14   9  79 N5        29.98F WCI   6

$$
WYZ014>020-022>026-101>103-221100-
CENTRAL WYOMING

CITY           SKY/WX    TMP DP  RH WIND       PRES   REMARKS
BIG PINEY      FAIR      -2  -7  79 VRB5      30.12R WCI -12
PINEDALE       FAIR       9   0  66 NW7       30.12S WCI  -3
DUBOIS         FAIR      18   1  49 NW22G28   30.06R WCI   0
LANDER         FAIR       9   0  67 SE5       30.02S WCI   1
RIVERTON       FAIR       1  -3  83 NW7       30.04S FOG     WCI -12
CASPER         FAIR      13   7  77 SW18      30.02S WCI  -4
DOUGLAS        FAIR       3   0  87 W10       30.01S WCI -12

$$
WYZ021-027>030-104>119-221100-
SOUTHERN WYOMING

CITY           SKY/WX    TMP DP  RH WIND       PRES   REMARKS
EVANSTON       FAIR       5   2  87 SW13      30.19R WCI -12
ROCK SPRINGS   FAIR      10   5  80 SW17      30.13R WCI  -8
DIXON          LGT SNOW   1  -3  84 CALM      30.20R
RAWLINS        FAIR      10   5  80 VRB5G16   30.06R WCI   2
SARATOGA       FAIR       0  -2  92 SE8       30.09R WCI -15
LARAMIE        FAIR       0  -2  91 SE5       29.96R WCI -10
CHEYENNE       FAIR      18   9  68 NW14G24   29.93S WCI   4
TORRINGTON     FAIR      17  10  74 W10       29.98S WCI   5

$$




USA.gov is the U.S. government's official web portal to all federal, state and local government web resources and services.